Location: Bonn
(50.7330°N, 7.1000°E)
Time: 15:10:07
(UTC+02:00)

Cosmos 1933 Rocket - Visible Passes

Search period start: 21 April 2015 00:00
Search period end: 01 May 2015 00:00
Orbit: 608 x 631 km, 82.5° (Epoch: 21 April)

Date Brightness Start Highest point End Pass type
(mag) Time Alt. Az. Time Alt. Az. Time Alt. Az.
21 Apr 6.9 05:45:57 10° ESE 05:47:53 13° E 05:50:01 10° NE visible
25 Apr 6.7 05:17:49 10° ESE 05:19:57 14° E 05:22:17 10° NE visible
26 Apr 6.3 05:33:45 10° SE 05:37:12 23° E 05:40:43 10° NE visible
29 Apr 6.5 04:49:41 10° ESE 04:52:00 14° E 04:54:29 10° NE visible
30 Apr 6.0 05:05:44 10° SE 05:09:15 24° E 05:12:50 10° NE visible
